Regional Weather Roundup
Issued by NWS

Home | Current Version | Previous Version | Graphics & Text | Print | Product List | Glossary On
Versions: 1 2 3 4 5 6 7 8 9 10 11 12 13 14 15 16 17 18 19 20 21 22 23 24 25 26 27 28 29 30 31 32 33 34 35 36 37 38 39 40 41 42 43 44 45 46 47 48 49 50
659
ASUS45 KBOU 280307
RWRCO

WEATHER ROUNDUP FOR COLORADO
NATIONAL WEATHER SERVICE DENVER/BOULDER CO
900 PM MDT WED APR 27 2016

NOTE: "FAIR" INDICATES FEW OR NO CLOUDS BELOW 12000 FEET WITH NO
SIGNIFICANT WEATHER AND/OR OBSTRUCTIONS TO VISIBILITY.

COZ001>005-013-030-031-280400-
...NORTHWEST COLORADO...

CITY           SKY/WX    TMP DP  RH WIND       PRES   REMARKS
CRAIG          CLOUDY    42  34  73 SW6       29.83R
HAYDEN         FAIR      41  30  65 SE3       29.84R
MEEKER         FAIR      41  35  79 E5        29.83R
MOUNT WERNER   NOT AVBL
STEAMBOAT SPGS MOCLDY    38  31  75 E6        29.86R
WALDEN         FAIR      30  27  86 N9        29.90R WCI  22
$$

COZ006>008-011-280400-
...WEST CENTRAL VALLEYS...

CITY           SKY/WX    TMP DP  RH WIND       PRES   REMARKS
GRAND JUNCTION MOCLDY    52  39  61 E14       29.75R
MONTROSE       MOCLDY    49  36  61 E3        29.83R
EAGLE          FAIR      45  32  61 SW5       29.85R
RIFLE          FAIR      48  36  63 SE5       29.79R
DELTA          NOT AVBL
NUCLA          NOT AVBL
$$

COZ017>023-064>068-280400-
...SOUTHWEST COLORADO...

CITY           SKY/WX    TMP DP  RH WIND       PRES   REMARKS
DURANGO        FAIR      47  26  44 S5        29.82R
CORTEZ         MOCLDY    50  30  46 E7        29.78F
PAGOSA SPRINGS CLOUDY    46  26  44 CALM      29.88R
TELLURIDE      FAIR      35  33  93 E7        29.90F WCI  29
WOLF CREEK PAS NOT AVBL
$$

COZ009-010-012-014-032>034-037-058>063-280400-
...CENTRAL COLORADO...

CITY           SKY/WX    TMP DP  RH WIND       PRES   REMARKS
ASPEN          FAIR      37  30  75 SW6       29.85R
BUENA VISTA    CLOUDY    44  23  44 W5        29.85R
COPPER MTN     NOT AVBL
BERTHOUD PASS  MOCLDY    18   9  68 W7        29.96R WCI   8
COTTONWOOD PAS FAIR      39  19  45 SW5       29.90R
GUNNISON       FAIR      45  25  45 S3        29.87R
KREMMLING      DRIZZLE   37  32  81 S3        29.89R
LEADVILLE      FAIR      31  21  66 N5        29.89R WCI  26
MONARCH PASS   CLOUDY    27  21  80 W15G23    30.06R WCI  15
SALIDA         CLOUDY    49  27  42 SE8G16    29.92R
SUNLIGHT       CLOUDY    30  30 100 CALM      29.95S
WILKERSON PASS LGT SNOW  28  27  93 S5        29.97R WCI  23
$$

COZ069>075-280400-
...SAN LUIS VALLEY/SANGRE DE CRISTO MOUNTAINS...

CITY           SKY/WX    TMP DP  RH WIND       PRES   REMARKS
ALAMOSA        CLOUDY    48  26  42 W6        29.84R
LA VETA PASS   FLURRIES  32  28  86 MISG      29.95S
SAGUACHE       MOCLDY    43  30  61 N9        29.87R
$$

COZ035-036-038>040-280400-
...NORTHERN COLORADO FRONT RANGE...

CITY           SKY/WX    TMP DP  RH WIND       PRES   REMARKS
DENVER INTL AP FAIR      41  26  55 NE10      29.87R
DMNS CITY PARK   N/A     45  26  48 E17       29.87R
AURORA         FAIR      40  29  65 E9        29.87R
FRONT RANGE AP MOCLDY    37  28  70 E7        29.87R
ERIE MUNI ARPT CLOUDY    45  30  55 E6        29.87R
BOULDER MUN AP CLOUDY    45  30  57 S5        29.87R
CENTENNIAL     FAIR      45  29  53 NE8       29.86R
BROOMFIELD     MOCLDY    45  28  53 NE13      29.87R
FORT COLLINS   FAIR      45  28  53 N14       29.86R
LONGMONT       CLOUDY    48  32  54 E9        29.88R
$$

COZ041-046-047-076>085-087-088-280400-
...PIKES PEAK/PALMER DIVIDE AND SOUTHERN FOOTHILLS...

CITY           SKY/WX    TMP DP  RH WIND       PRES   REMARKS
COLO. SPRINGS  MOCLDY    45  31  58 E9        29.87R
A. F. ACADEMY  CLOUDY    43  32  65 N5        29.86R
SCHRIEVER AFB  NOT AVBL
ELLICOTT       NOT AVBL
FALCON         FAIR      37  29  72 NE6       29.89R
FORT CARSON    MOCLDY    47  32  56 S2        29.85R
LIMON          FAIR      41  27  57 N9        29.85R
MONUMENT HILL  CLOUDY    36  32  87 NE7       29.89R
TRINIDAD       CLOUDY    53  30  41 SE13      29.80R
$$

COZ042>045-048>051-090-091-280400-
...NORTHEAST COLORADO...

CITY           SKY/WX    TMP DP  RH WIND       PRES   REMARKS
GREELEY ARPT   CLOUDY    43  28  56 NE14      29.87R
AKRON          FAIR      37  26  64 N12       29.86R
BURLINGTON     FAIR      43  31  62 N14       29.83R
WRAY           NOT AVBL
STERLING       FAIR      37  30  75 N3        29.85R
HOLYOKE        NOT AVBL
FORT MORGAN    FAIR      38  26  63 N5        29.88R
$$

COZ086-089-092>099-280400-
...SOUTHEAST COLORADO...

CITY           SKY/WX    TMP DP  RH WIND       PRES   REMARKS
PUEBLO         CLOUDY    57  29  34 E14G28    29.81R
LA JUNTA       CLOUDY    57  29  34 NE10      29.81R
LAMAR          FAIR      49  31  49 E6        29.80R
SPRINGFIELD      N/A     49  32  52 E5        29.82R
$$




USA.gov is the U.S. government's official web portal to all federal, state and local government web resources and services.